Wind_Speed
23 25 26 28 29 31 32 33 35 36 36 37 38 40 42 44 47 49 51 52 54 55 55 56 58 59 62 66 68 69 68 64 60 56 51 47 46 46 49 53 56 58 59 59 57 54 52 51 52 53 53 54 53 49 51 53 51 50 48 46 46 46 50 51 50 51 49 49 47 45 42 41 43 43 42 41 40 38 35 33 30 29 28 27 25 24 24 24
24 26 27 29 31 32 33 35 36 37 38 38 40 41 44 46 49 51 53 55 56 57 58 59 61 63 67 70 71 70 67 62 56 51 47 44 43 45 49 53 56 58 59 59 58 55 53 53 53 54 52 51 52 50 51 55 54 52 50 46 45 45 48 51 51 50 50 49 48 47 44 41 42 43 43 41 39 37 35 33 30 29 28 26 24 23 24 24
25 26 28 30 32 33 35 36 37 38 39 40 41 43 46 49 51 53 55 57 58 60 61 62 65 68 70 72 70 67 63 57 52 46 42 40 41 44 48 52 55 56 57 59 58 56 54 54 55 56 53 49 52 51 50 56 56 54 53 49 46 46 48 51 51 50 51 51 50 49 48 45 41 40 43 42 39 37 34 32 30 28 27 26 24 24 24 24
26 28 29 31 33 34 36 37 39 40 41 41 43 45 48 51 53 55 57 59 61 62 64 66 69 72 73 71 67 63 58 51 46 42 38 37 38 42 46 51 54 54 55 57 58 56 55 55 56 57 57 53 51 50 49 54 57 55 54 51 48 47 47 49 50 50 51 52 52 51 51 49 45 40 41 42 40 37 34 32 30 28 28 28 27 25 24 25
28 29 31 32 34 35 37 38 40 41 42 43 44 47 50 52 55 57 59 61 63 64 67 70 72 74 72 68 63 57 51 45 41 37 35 34 35 40 44 49 52 53 53 55 57 57 56 56 58 58 59 57 51 49 49 51 54 55 55 53 51 49 46 46 50 51 51 52 51 52 52 50 48 44 42 42 41 40 36 32 32 30 29 29 28 26 25 25
29 30 32 33 34 36 37 39 41 42 43 44 46 49 52 54 57 59 61 63 65 67 70 73 75 73 69 64 58 51 45 40 36 31 31 31 33 37 41 46 50 51 52 54 57 58 57 56 59 59 59 60 55 50 47 47 49 51 54 54 52 51 48 45 49 52 52 52 49 49 51 51 50 47 45 42 42 42 39 34 33 33 30 29 29 28 27 26
30 31 32 34 35 36 38 39 41 43 44 45 48 51 53 56 59 61 63 65 67 70 73 75 74 71 66 60 52 45 39 35 32 28 28 29 31 34 37 42 46 49 50 53 57 59 58 57 59 59 59 60 58 52 48 45 43 46 52 52 49 50 50 45 46 51 53 53 49 45 47 50 51 49 47 45 42 42 41 37 34 34 32 30 30 29 29 27
31 32 33 34 35 36 38 40 42 43 44 46 49 52 55 58 60 62 64 67 70 73 75 75 72 68 62 54 46 39 34 31 29 27 27 27 29 31 34 38 42 47 49 53 57 59 59 58 59 59 59 59 58 52 48 45 41 45 51 50 46 45 48 45 43 47 51 53 52 46 42 43 47 48 48 46 45 42 41 39 36 34 32 31 31 31 29 28
32 32 32 33 34 36 38 40 42 44 45 47 50 53 56 59 62 64 66 69 72 75 76 73 69 64 57 49 41 34 30 28 27 26 26 27 28 29 31 35 39 45 48 52 57 59 59 59 59 59 59 59 58 50 45 44 41 44 51 51 47 43 44 44 41 41 44 47 51 49 44 42 42 45 48 46 46 44 42 41 38 35 33 33 32 30 28 27
31 31 32 33 34 35 38 40 42 44 46 48 51 55 58 60 63 65 68 71 74 76 74 70 66 60 52 44 37 30 27 26 25 25 26 27 28 28 30 33 37 43 47 51 57 59 59 59 59 59 58 59 58 50 43 43 40 41 49 51 48 44 44 44 43 41 40 40 47 50 47 47 45 43 46 47 47 47 44 41 40 37 35 34 33 30 29 28
30 31 32 33 34 35 38 40 43 44 46 49 53 56 59 62 64 66 70 73 75 75 72 67 62 55 47 40 34 29 26 25 24 25 26 27 28 28 30 32 36 42 46 51 57 59 58 59 59 58 59 58 57 51 44 42 40 39 46 52 49 46 46 46 43 41 40 39 44 50 48 47 45 42 46 48 48 48 46 42 40 38 35 35 33 32 31 29
29 31 31 32 33 35 38 41 43 45 47 50 54 57 60 63 65 68 71 74 75 73 69 65 59 51 43 38 33 29 27 25 24 24 25 27 27 27 29 32 36 42 46 51 56 58 57 58 59 58 58 57 56 53 45 40 40 37 44 52 49 45 45 45 43 39 39 39 42 49 49 46 43 38 42 47 47 47 47 44 41 38 35 33 33 32 31 29
29 30 31 32 33 36 38 41 43 45 48 51 55 58 61 63 66 69 73 74 74 70 66 62 54 46 40 36 32 28 26 24 23 23 24 26 26 26 29 32 37 42 46 51 55 56 57 57 58 57 57 57 55 54 46 40 40 36 42 50 46 44 45 43 41 39 39 39 41 45 45 45 44 40 39 42 43 46 46 43 40 38 34 32 32 31 30 29
29 30 31 32 33 36 38 41 43 45 49 52 56 59 62 64 67 70 73 74 71 68 64 58 49 43 38 33 29 25 22 20 20 20 22 25 25 26 29 32 37 42 46 50 54 55 56 56 57 57 56 56 55 55 49 41 39 36 39 47 46 43 45 43 41 40 39 38 39 43 43 40 39 40 41 39 38 44 46 42 40 38 34 32 31 29 29 30
28 29 30 31 33 36 38 41 43 46 49 53 57 60 62 65 68 71 73 72 68 65 61 53 45 40 35 30 26 20 17 14 14 17 20 23 24 26 29 33 38 43 47 49 52 54 55 55 56 56 56 56 55 56 53 43 39 36 37 45 47 44 44 45 42 41 41 40 39 43 43 39 36 37 40 39 36 41 45 42 40 40 36 33 33 30 29 30
27 29 30 31 33 36 38 41 43 46 50 54 57 60 63 66 69 71 72 68 64 62 57 49 42 36 30 27 22 16 12 9 10 13 18 21 24 26 29 34 39 43 46 48 50 53 54 54 54 54 55 56 55 57 54 46 40 36 34 41 47 44 43 43 40 39 41 41 41 42 42 41 40 38 37 38 36 39 45 42 38 41 39 33 31 31 31 32
27 28 29 30 33 35 38 41 43 46 50 54 58 60 63 66 69 70 69 64 61 59 52 44 38 32 27 24 19 14 8 6 6 9 15 20 23 26 29 35 39 42 44 46 50 52 52 52 52 53 54 54 55 57 54 47 40 36 34 39 45 43 41 42 38 37 39 40 40 42 41 40 41 39 36 35 34 37 45 44 38 41 43 37 31 29 30 33
26 27 29 30 32 35 38 41 43 47 51 55 58 61 63 66 68 68 65 61 58 53 46 39 34 29 25 21 17 12 7 5 3 6 13 19 23 26 30 35 39 41 42 45 49 51 51 50 49 51 53 53 54 55 53 43 35 33 34 37 45 44 39 40 37 34 35 37 37 37 37 37 37 37 36 34 33 36 44 46 39 40 43 40 36 31 27 30
25 27 28 30 32 35 38 40 43 47 51 55 58 61 63 66 67 66 62 58 53 47 41 35 30 26 23 19 16 11 7 5 1 5 13 19 22 26 31 35 38 39 41 44 48 49 49 47 47 50 52 52 53 53 50 42 32 30 32 34 43 44 37 37 36 29 29 32 34 34 32 33 34 34 35 34 32 34 42 46 40 39 44 42 38 36 28 24
25 26 28 29 32 35 37 40 43 47 51 55 58 60 63 65 65 63 59 54 49 43 37 34 29 24 21 18 14 10 7 5 2 6 13 18 22 27 32 34 35 37 40 43 46 47 46 45 45 49 50 50 51 51 49 43 35 31 32 32 38 43 38 36 34 28 28 30 31 32 29 30 32 32 35 33 30 30 36 44 41 38 44 44 38 36 31 22
24 26 27 28 31 34 37 40 43 47 51 54 58 60 62 64 62 59 54 50 45 39 34 31 27 24 22 18 13 9 6 4 3 8 13 18 23 28 31 32 33 36 39 42 44 44 44 43 43 46 48 48 48 49 47 43 38 31 31 31 35 41 38 32 29 27 30 32 29 29 27 27 30 31 32 32 31 30 30 36 37 34 38 43 40 36 32 24
23 25 26 28 30 33 36 39 43 46 50 54 57 59 62 63 61 57 51 46 41 36 33 31 28 25 23 20 16 11 8 6 7 11 15 20 25 27 28 30 32 35 38 41 42 43 43 41 40 43 46 46 45 47 46 43 40 32 29 30 31 36 35 30 27 25 28 32 30 29 28 27 28 30 30 30 31 31 29 31 30 27 30 37 40 39 35 27
23 24 25 27 29 32 36 39 42 46 50 53 56 58 61 61 58 55 48 42 37 32 31 32 30 26 24 22 19 16 13 12 13 15 19 22 24 25 27 29 31 34 37 39 40 41 41 39 38 40 43 45 44 45 46 44 41 34 27 26 26 28 29 26 26 24 24 30 31 31 30 26 24 26 28 30 31 30 30 31 28 25 26 31 37 40 38 33
22 23 24 26 29 32 35 38 41 45 49 53 56 58 59 59 55 51 45 39 34 28 27 29 29 27 25 23 21 19 18 17 18 20 22 23 23 24 27 29 31 35 36 37 38 37 36 36 36 36 38 43 45 45 46 45 42 36 29 24 23 25 25 24 26 26 25 28 29 31 32 28 22 22 24 27 31 31 30 31 28 25 25 26 31 36 37 36
21 23 24 25 28 31 34 37 41 45 48 52 55 57 58 57 53 48 41 36 32 26 24 26 26 26 26 24 22 21 20 19 20 21 22 23 23 25 27 29 32 35 36 36 36 35 34 34 33 32 34 37 41 42 44 45 43 37 31 26 22 24 25 25 27 27 24 25 26 27 30 30 25 22 22 23 26 29 30 31 29 26 24 23 25 31 34 34
21 22 23 24 27 30 33 36 40 44 47 51 54 55 57 55 50 45 38 33 30 22 20 22 22 23 22 21 20 20 20 20 21 22 22 24 25 27 27 30 34 35 35 36 35 34 33 33 31 28 30 32 35 38 40 44 43 36 30 26 21 20 22 24 26 26 22 21 22 23 24 26 25 23 23 23 23 24 27 30 31 29 26 24 23 27 31 32
20 21 22 23 26 29 32 36 39 43 47 50 52 54 55 53 48 43 36 32 28 20 17 19 19 19 18 17 17 18 19 21 22 23 24 26 27 28 29 31 34 34 35 35 34 34 32 32 31 27 29 30 32 36 38 40 41 36 29 23 21 21 21 23 25 23 21 19 20 22 22 22 24 24 22 22 23 23 25 27 29 29 28 27 25 25 27 29
19 20 21 22 25 28 31 35 38 42 45 49 51 53 54 51 47 41 35 30 27 21 18 18 18 18 17 16 18 19 20 21 22 24 25 26 27 29 31 32 33 33 34 35 33 33 32 33 32 27 30 32 31 34 36 37 36 35 31 23 21 23 20 20 23 22 20 20 20 22 23 21 22 24 24 22 21 21 23 25 27 29 29 29 29 27 26 26
18 19 20 21 24 26 30 33 37 41 44 47 50 52 52 50 46 40 33 29 26 23 20 19 19 19 17 19 20 20 20 21 22 25 25 26 27 29 32 33 32 32 33 34 33 31 31 33 32 27 28 30 29 30 32 33 31 32 32 25 21 21 17 17 20 20 19 19 19 20 23 22 21 23 24 23 21 20 22 25 27 28 28 28 28 27 27 26
17 18 19 20 22 25 29 32 35 39 43 46 49 50 51 49 44 38 32 27 24 23 21 20 19 19 19 20 20 19 20 21 23 24 25 26 27 30 32 32 32 33 33 33 32 30 30 31 29 25 25 26 25 25 27 27 26 26 29 25 21 19 16 15 17 18 18 18 18 18 21 22 21 21 22 22 22 21 21 22 24 25 25 25 25 26 26 27
16 17 18 19 21 24 27 31 34 38 42 45 47 49 50 47 43 37 31 26 22 21 20 19 17 17 17 18 19 19 19 21 22 24 25 26 27 29 30 31 33 34 33 33 32 30 29 29 26 24 23 23 22 22 21 22 21 21 22 21 19 17 15 15 14 15 17 16 17 18 18 20 20 20 20 20 21 21 20 20 22 23 24 24 24 24 25 26
15 16 17 18 19 22 26 29 33 36 40 44 46 48 48 46 42 37 31 26 22 20 19 18 17 16 15 16 19 18 19 21 22 24 25 26 27 28 30 31 32 33 33 32 31 29 28 27 26 24 23 22 20 18 18 17 17 16 16 15 16 15 15 15 13 15 16 16 17 18 18 18 19 20 20 20 20 19 19 20 21 23 24 25 24 24 23 24
14 15 16 17 18 21 24 28 31 35 38 42 44 47 47 45 41 36 30 25 21 19 19 18 17 15 14 16 18 18 19 20 22 24 25 26 27 28 29 30 31 31 31 31 31 29 28 26 25 23 22 21 19 17 16 15 14 15 14 14 14 12 12 12 11 12 13 15 17 18 19 18 18 20 20 19 18 18 18 19 20 21 22 23 23 23 23 23
13 14 15 15 16 19 22 26 29 33 37 40 43 45 46 44 41 36 30 23 19 18 18 18 17 15 15 16 18 18 19 20 22 24 24 26 28 28 29 31 31 31 30 30 29 28 27 26 24 23 22 21 20 19 17 16 16 16 16 16 15 14 12 9 8 9 9 12 15 17 19 19 19 19 19 19 19 18 18 19 19 20 20 20 20 21 22 22
12 13 14 14 15 17 21 24 27 31 35 38 41 43 45 44 40 35 29 22 18 17 17 17 16 15 15 16 17 18 19 19 21 22 23 25 28 28 29 31 31 31 31 30 28 27 26 25 25 24 23 23 22 21 20 19 19 18 18 19 18 16 15 13 13 13 12 13 15 16 17 18 19 19 19 19 19 19 18 18 18 18 18 18 18 18 18 19
12 12 13 13 13 16 19 22 25 29 33 36 39 42 43 43 40 35 29 23 18 17 16 16 15 15 15 15 17 19 19 19 20 20 22 25 28 29 30 31 31 32 31 29 27 26 26 26 26 25 24 25 24 23 23 22 21 19 19 20 19 17 16 15 16 16 15 16 15 16 17 17 19 20 20 20 20 19 19 18 18 18 17 17 16 14 14 15
11 11 12 11 12 14 17 20 23 27 30 34 37 40 42 42 40 36 31 24 19 16 16 15 15 15 15 15 17 18 19 19 20 20 21 25 28 29 30 31 32 32 32 30 27 25 25 25 25 25 26 26 25 25 24 23 22 21 19 19 18 17 15 14 15 14 14 15 14 15 17 18 20 20 20 20 20 20 20 19 19 18 17 16 14 13 13 12
10 11 11 10 10 12 15 18 21 25 28 32 35 38 40 40 39 37 32 25 19 16 16 15 15 15 14 14 16 18 19 20 20 20 22 25 27 29 30 30 32 33 33 30 26 23 24 25 25 25 25 25 26 25 24 24 23 21 19 18 17 15 14 13 13 12 12 13 13 14 15 16 17 18 19 20 20 20 20 19 18 17 16 15 14 13 12 11
10 10 10 10 9 10 13 16 19 23 26 30 33 35 38 38 38 37 32 26 20 17 16 15 15 15 14 14 15 17 19 21 21 21 23 25 27 29 29 30 31 32 32 30 25 24 24 24 24 25 25 24 25 25 25 24 23 21 19 19 16 14 14 12 11 11 11 12 12 12 13 13 15 16 17 18 19 20 19 19 17 16 15 14 13 12 11 11
10 9 9 9 8 8 11 14 17 20 24 27 30 33 35 36 37 36 33 28 22 18 17 16 15 15 14 14 15 17 20 21 22 22 25 26 27 29 29 30 31 31 31 29 26 26 25 23 23 24 24 25 25 25 25 25 24 22 21 20 17 15 14 12 11 11 11 11 10 11 12 12 13 15 15 16 18 19 19 18 17 16 15 16 15 14 13 12
10 9 9 9 7 6 8 12 15 18 21 25 28 31 33 35 35 35 33 29 24 20 18 17 16 16 15 15 16 17 20 22 22 23 26 27 27 28 28 29 29 29 28 26 24 23 23 22 22 23 23 24 24 24 24 24 24 23 22 20 19 16 14 12 11 10 11 10 10 10 11 12 12 13 14 16 17 18 18 17 17 17 18 19 18 16 15 13
10 9 9 9 7 5 6 9 13 16 19 23 26 29 31 33 34 34 33 30 25 21 19 18 17 17 16 16 17 18 20 21 22 25 27 28 27 27 27 27 26 27 26 23 21 22 21 21 21 21 21 22 22 22 21 22 22 22 22 20 18 17 15 14 12 11 11 11 10 10 11 12 13 13 15 16 16 18 18 18 18 19 20 21 21 19 16 14
11 9 9 9 8 5 4 7 10 14 16 20 23 26 29 31 32 32 32 30 26 23 20 19 18 18 18 18 18 19 20 22 24 26 28 28 27 27 26 26 25 25 24 21 20 22 22 20 20 20 20 20 20 20 20 20 20 20 20 18 16 16 15 14 12 12 12 12 12 11 12 13 14 14 16 16 16 17 18 18 19 20 22 24 24 22 19 16
12 10 9 9 9 6 3 5 8 11 14 17 21 24 26 28 30 30 30 29 27 24 21 20 20 20 20 20 19 20 21 23 25 27 28 27 27 26 26 25 23 24 23 20 19 20 20 20 19 18 19 19 19 18 18 18 18 17 17 15 13 13 13 13 12 12 13 13 13 13 13 14 14 15 16 17 17 18 18 19 20 21 24 26 27 26 24 21
14 12 10 10 10 7 3 2 5 9 11 14 18 21 24 26 27 28 29 28 26 25 22 21 21 21 21 22 21 22 23 25 26 27 27 26 26 26 25 24 23 22 22 20 19 18 18 17 17 16 17 17 16 16 16 16 15 15 15 14 13 13 13 12 12 13 13 13 13 14 14 14 15 16 17 17 18 19 19 20 21 21 22 24 25 25 24 22
15 13 12 11 11 8 4 1 3 6 9 12 15 18 21 24 25 26 27 27 25 24 23 22 22 22 22 23 23 24 25 26 26 26 26 25 25 25 24 23 23 21 20 19 18 17 16 15 14 14 14 15 15 14 14 14 14 14 14 13 13 13 13 12 13 12 13 13 13 13 14 15 15 16 16 17 17 18 19 19 19 19 19 20 21 21 20 19
16 15 13 13 12 10 7 3 0 3 6 9 12 16 19 21 23 24 25 25 24 23 23 23 22 22 23 24 24 25 25 25 25 25 25 25 25 24 23 22 21 20 19 18 16 15 14 14 13 13 13 13 13 13 13 13 13 13 12 12 12 12 12 12 12 11 12 11 11 11 13 13 14 14 15 15 15 15 15 15 15 16 17 18 18 18 17 17
17 16 15 14 13 12 9 5 3 0 3 6 9 12 16 18 21 22 22 23 23 22 22 22 23 23 23 23 24 24 23 23 23 23 24 24 24 23 22 21 20 18 17 16 15 14 14 14 13 13 13 13 12 12 12 12 11 12 11 11 12 12 12 11 11 10 10 10 10 10 11 11 12 12 13 12 11 11 12 12 14 16 16 16 16 16 16 16
18 18 17 16 15 13 11 8 5 3 1 4 6 9 13 15 18 20 21 21 21 21 20 21 22 22 22 21 21 21 21 22 22 23 23 23 23 22 21 19 18 17 16 15 15 15 14 14 13 12 12 12 11 11 11 11 11 11 10 10 11 12 12 11 11 11 11 10 10 10 9 10 10 10 9 10 11 12 13 14 15 16 16 16 16 16 16 16
20 19 18 17 16 15 13 11 8 5 2 1 4 7 10 12 15 18 19 19 19 20 19 19 20 21 21 19 18 19 20 20 21 22 22 22 22 21 20 18 17 16 16 15 15 15 14 13 12 11 11 11 11 11 11 11 11 11 11 11 11 12 12 12 12 12 12 11 10 9 9 10 10 9 10 12 13 13 14 14 14 14 14 14 15 15 16 16
21 20 20 19 17 16 15 13 11 8 5 3 2 4 7 10 12 14 17 18 18 18 18 17 17 18 19 19 18 18 18 19 20 21 22 22 21 21 20 19 18 17 16 15 14 14 13 12 11 11 11 11 11 11 11 12 12 11 11 11 12 11 12 12 12 12 12 11 10 10 11 10 9 10 11 11 11 12 12 13 13 14 14 15 15 16 16 17
22 22 21 20 19 18 17 15 13 11 9 6 3 3 5 7 9 11 13 15 16 17 17 17 16 16 17 18 18 17 17 19 20 21 21 21 20 20 19 18 17 16 15 14 14 13 12 11 11 11 11 11 11 11 11 11 11 11 11 11 11 11 11 11 11 12 12 11 9 11 12 10 9 10 10 10 10 11 13 14 14 14 15 15 16 17 18 19
Wind_Direction
321 322 324 325 327 328 329 329 329 329 328 327 326 325 324 324 324 323 322 322 321 319 317 314 312 310 309 308 307 306 305 303 298 292 284 274 263 251 240 234 231 230 228 227 225 220 215 211 213 217 218 219 218 214 210 212 214 211 209 207 207 208 208 208 209 211 212 215 214 208 213 221 221 221 220 219 220 221 222 224 226 224 222 224 223 221 222 223
320 321 322 324 325 327 328 328 328 328 328 327 326 325 325 324 324 323 323 322 321 319 317 315 313 311 310 309 308 308 306 303 297 289 280 270 258 247 237 231 229 228 226 225 222 218 214 209 209 214 218 219 218 215 210 210 213 213 210 208 207 209 208 207 207 209 210 213 215 210 210 218 220 220 220 218 219 221 223 224 226 227 224 225 225 222 221 222
318 319 320 322 324 325 327 327 328 328 328 327 327 326 325 325 324 324 324 323 322 320 317 315 314 312 311 311 310 309 306 301 294 286 275 266 254 243 235 229 227 226 224 222 220 216 212 208 205 208 213 217 219 217 212 208 211 214 212 208 207 209 209 208 208 208 208 210 213 211 209 214 217 218 219 217 216 219 223 225 225 227 226 225 224 222 220 220
316 317 319 320 322 324 325 326 327 328 328 328 327 326 326 326 325 325 325 324 322 320 318 316 315 314 313 313 312 309 305 298 291 283 273 262 251 241 234 228 226 224 222 220 217 213 211 207 204 204 206 212 217 217 214 207 208 214 212 208 207 207 208 209 208 208 210 210 212 212 210 213 215 216 217 216 214 214 219 223 224 223 222 222 220 218 217 218
314 316 317 319 320 322 324 326 327 328 328 328 328 327 327 326 326 326 326 324 322 320 318 317 316 315 315 315 313 309 303 295 287 279 268 258 247 240 233 228 225 222 219 217 214 210 209 207 204 204 203 206 210 213 214 207 205 212 214 211 210 208 208 209 207 206 210 211 212 214 212 214 216 217 218 217 215 214 215 220 225 224 222 221 217 213 213 215
312 314 316 318 319 321 323 325 327 328 329 329 329 328 328 327 327 327 326 324 322 321 319 318 317 317 317 316 313 308 300 291 284 273 261 253 244 238 233 227 224 220 216 213 210 207 206 206 204 203 203 203 206 210 214 209 205 209 214 214 212 211 209 209 209 207 208 209 210 214 214 215 217 219 220 219 215 215 214 217 223 223 224 224 219 214 210 212
311 313 315 317 318 320 323 325 327 329 329 330 330 329 328 328 328 328 326 324 323 321 320 319 319 319 318 316 312 306 297 287 279 266 255 249 242 237 232 227 222 218 214 210 207 205 204 205 204 203 202 203 204 209 213 209 206 208 212 213 211 213 212 211 212 211 210 207 208 213 215 216 218 219 221 221 217 216 215 217 221 219 220 224 222 219 213 210
310 313 315 316 318 320 323 326 328 330 330 331 331 330 329 329 329 328 326 325 324 322 321 321 321 321 319 316 310 303 294 283 273 261 251 245 241 236 230 226 220 215 211 207 204 203 202 203 205 203 201 203 203 205 209 207 205 207 210 211 208 210 209 210 213 212 212 211 209 210 212 215 218 219 220 222 221 218 216 218 222 219 218 222 222 222 216 210
310 313 315 316 318 321 324 327 329 330 331 332 332 331 331 331 330 328 327 326 325 324 323 323 323 322 320 315 309 301 292 281 270 259 249 242 240 235 228 223 217 212 208 204 202 201 201 201 204 203 200 202 203 202 203 205 204 204 208 208 205 204 203 206 210 209 212 214 211 209 212 216 216 216 217 219 220 218 217 217 220 219 218 220 220 220 216 212
312 314 316 317 319 322 325 328 330 331 332 333 333 332 332 331 330 329 328 327 326 325 325 325 324 323 320 315 308 301 291 280 269 258 247 240 238 233 226 220 213 208 205 202 200 200 199 200 203 203 200 201 202 200 199 203 204 200 204 205 203 202 200 204 208 207 211 215 212 207 212 219 219 219 217 217 217 215 215 217 217 216 217 218 216 214 213 212
314 316 317 319 321 324 327 330 331 332 334 334 334 333 333 332 331 330 329 328 327 326 327 327 326 324 320 314 309 301 291 280 267 256 246 238 235 230 223 216 208 205 202 199 199 199 198 199 202 202 200 199 200 199 198 201 202 198 199 202 202 202 200 202 206 208 210 216 215 207 210 217 219 222 221 218 217 214 213 216 216 213 214 217 213 210 209 209
316 318 319 320 322 326 329 331 332 334 335 335 335 334 334 333 332 331 330 329 328 328 329 329 327 325 320 314 309 301 290 278 266 255 244 235 231 226 218 211 204 201 198 197 197 197 197 198 200 202 200 198 198 197 195 197 202 198 194 198 202 203 203 203 204 209 210 214 215 208 209 214 215 218 218 217 215 212 211 215 217 212 211 215 214 209 206 206
318 320 321 322 325 328 330 332 334 335 336 336 336 336 335 334 333 332 331 330 330 330 331 330 328 325 321 317 311 302 290 277 265 251 239 231 226 219 213 205 200 197 195 195 196 196 196 197 199 201 199 198 196 195 193 193 199 198 192 193 197 201 206 205 203 207 210 213 213 208 210 215 217 218 217 216 215 211 209 214 216 213 211 212 212 209 204 204
320 321 322 324 327 329 331 334 335 337 337 337 337 337 336 335 334 333 332 332 331 332 333 332 330 327 324 322 316 306 294 279 262 245 230 225 220 212 207 200 195 193 192 193 195 195 195 196 198 200 199 198 195 194 193 191 194 198 195 192 191 193 202 205 204 206 209 212 210 207 209 213 217 218 217 217 216 211 209 212 213 212 212 211 210 208 205 205
321 322 324 326 328 331 333 335 336 338 338 338 338 338 337 335 335 334 333 333 333 334 335 334 332 331 330 329 324 313 298 281 257 235 221 216 212 205 200 195 191 190 190 192 193 193 194 195 197 198 198 197 194 194 195 191 190 196 198 193 188 186 195 203 206 206 207 209 208 206 208 211 215 217 217 217 218 214 210 211 211 210 211 211 211 210 208 207
321 323 325 328 329 332 334 336 338 339 339 339 339 339 338 337 336 336 335 335 336 336 337 337 336 336 337 336 334 325 305 281 252 228 215 209 203 198 194 190 187 188 189 191 191 191 193 194 195 196 198 196 193 194 196 194 190 194 198 194 187 185 191 198 201 203 206 209 209 209 210 213 216 217 217 218 220 216 211 210 210 208 207 207 208 209 210 209
322 324 327 329 331 333 336 337 339 340 340 340 340 339 339 338 337 337 337 337 339 339 340 340 340 342 345 344 344 340 323 295 260 225 208 200 195 191 188 185 185 187 188 188 188 190 191 193 193 195 196 195 194 196 199 196 191 191 195 192 186 185 189 192 193 192 197 204 206 209 213 215 216 218 219 220 222 218 213 213 213 209 208 209 210 207 209 211
323 325 329 331 332 335 337 338 340 340 340 341 341 340 340 339 339 339 339 340 341 342 342 343 344 347 350 352 355 352 342 326 283 215 196 189 186 185 182 182 183 185 187 186 186 188 189 191 191 193 195 195 196 198 199 194 189 188 190 189 186 184 185 192 195 191 194 202 206 208 212 215 216 218 220 223 225 220 215 216 217 212 210 212 215 213 210 211
324 326 330 332 334 336 338 339 340 341 341 342 342 341 341 340 340 341 341 343 344 345 345 348 350 351 353 357 1 2 360 351 326 185 180 178 179 178 178 179 181 183 183 183 184 185 188 189 189 191 194 195 196 198 198 193 188 188 188 188 188 186 182 188 193 191 197 205 209 212 215 217 217 217 218 221 225 222 217 218 218 214 213 214 215 217 218 215
326 328 331 333 335 337 339 340 341 342 342 343 343 342 342 341 342 343 343 345 347 349 352 354 356 358 359 0 1 5 10 12 74 159 168 170 172 173 174 177 179 179 179 179 181 183 186 188 188 189 192 194 195 196 197 194 190 188 188 187 187 186 183 184 183 181 192 202 207 211 215 219 220 219 219 220 223 222 219 220 220 216 215 218 218 219 223 225
327 328 331 334 336 338 340 341 342 343 343 344 344 343 343 343 344 345 346 348 350 354 360 3 6 8 9 10 9 12 19 35 108 148 158 163 166 168 172 174 175 175 175 175 177 180 184 186 187 188 190 193 194 195 196 196 192 189 188 186 184 186 186 186 183 180 190 200 203 205 210 217 218 218 220 221 224 224 221 221 223 223 221 221 223 224 225 227
328 329 332 334 337 339 340 342 343 344 344 345 345 344 344 344 346 347 349 350 353 359 8 14 17 18 19 22 27 35 48 77 117 139 148 155 160 163 167 169 169 170 171 172 174 178 182 183 184 187 190 191 192 195 195 195 193 191 190 188 184 185 188 189 187 184 192 201 202 201 202 207 211 215 217 218 221 223 220 218 219 222 224 225 226 226 226 224
328 330 332 335 338 340 341 342 343 344 345 346 346 345 345 346 348 350 352 353 356 4 16 24 26 27 29 33 40 50 67 92 113 129 140 147 154 158 161 162 163 164 166 169 172 177 180 181 182 186 189 191 191 193 194 193 192 191 189 189 188 186 189 192 187 182 189 199 203 201 197 197 201 208 213 212 213 216 215 216 214 210 215 223 224 225 225 224
327 330 333 336 339 341 342 343 344 345 346 347 347 346 347 348 350 352 354 355 358 7 21 29 34 36 39 44 51 62 76 95 111 124 134 141 146 151 153 155 157 159 162 165 169 173 177 180 181 185 189 192 192 191 191 192 192 190 185 186 194 193 193 194 190 184 181 188 196 201 202 203 203 204 207 210 210 211 209 207 207 204 209 220 222 222 223 224
327 331 334 337 339 342 343 344 345 346 347 348 348 348 348 350 353 355 356 357 359 8 21 31 38 42 47 51 59 71 82 96 110 120 128 134 138 142 146 150 153 155 159 161 163 166 171 177 180 183 189 192 193 191 192 194 193 190 186 184 190 195 196 196 195 194 187 181 183 190 199 206 209 207 207 209 210 213 211 204 202 206 214 222 224 223 223 226
327 331 334 337 340 343 344 345 346 347 348 349 349 349 350 352 355 357 359 1 1 6 18 29 37 41 46 52 61 75 87 99 109 115 123 128 131 136 141 148 150 153 155 157 160 162 166 172 174 180 187 189 194 194 193 196 195 190 186 186 191 199 206 202 198 200 197 186 180 179 186 194 201 204 206 209 212 214 214 213 214 220 225 228 228 226 225 228
326 332 335 338 341 343 345 346 347 347 349 350 350 350 351 354 356 359 2 4 6 11 19 26 31 35 44 56 64 77 92 103 110 115 122 126 130 135 140 146 149 150 154 155 157 160 162 165 164 173 183 185 195 197 194 198 198 189 181 183 191 200 210 207 200 202 198 187 182 183 185 188 195 200 202 207 212 215 217 219 223 227 231 232 232 231 229 231
326 332 335 338 341 344 345 347 347 348 350 351 351 352 353 355 358 1 4 7 13 22 29 33 36 38 49 66 75 86 96 103 111 117 122 127 131 136 138 143 146 149 154 153 154 157 158 160 160 168 180 183 193 197 196 200 199 191 182 179 188 194 201 203 200 200 195 186 182 186 190 192 196 202 204 206 209 212 215 220 224 228 230 232 234 235 235 236
326 331 335 338 342 345 346 347 348 349 351 352 353 353 355 357 360 3 7 11 20 32 39 44 47 50 61 75 83 92 99 105 114 119 122 127 131 134 137 141 143 147 152 151 151 155 157 159 161 167 176 183 191 195 196 200 198 194 189 183 184 189 190 193 196 197 193 186 182 186 191 193 195 200 205 209 209 209 212 216 221 226 229 233 236 238 239 240
325 331 335 337 342 346 348 348 349 350 352 353 354 355 356 358 1 6 9 14 27 38 44 50 55 59 68 80 87 94 102 109 117 121 123 128 131 134 138 142 142 145 149 149 149 152 155 160 164 166 171 179 187 190 193 198 196 194 194 191 188 188 188 189 192 195 194 191 188 187 192 194 196 198 203 208 212 214 215 216 219 223 228 232 235 237 238 239
324 331 335 337 342 347 348 349 350 351 353 354 355 356 358 0 3 7 10 17 31 42 47 51 54 55 63 81 92 98 107 114 118 122 125 128 131 134 138 142 142 144 148 147 146 149 152 158 163 164 166 172 178 181 186 192 194 192 192 196 195 192 193 192 191 194 195 195 194 193 195 197 199 199 200 206 212 217 217 216 217 220 224 228 231 233 234 235
322 329 334 336 342 348 349 350 351 352 354 355 357 358 360 2 5 7 11 19 33 42 46 51 52 53 63 86 99 105 113 116 119 122 125 128 131 133 137 140 142 144 146 146 144 146 150 154 158 160 162 167 171 175 180 182 186 183 178 185 190 190 196 196 193 196 197 196 197 200 199 198 202 204 203 206 210 214 216 217 218 221 225 228 231 233 234 236
319 327 333 336 342 348 350 351 352 353 355 357 358 359 1 4 6 9 13 22 35 42 45 50 53 60 76 95 105 112 116 118 121 123 126 129 131 134 137 139 140 143 145 145 143 144 148 150 154 155 157 160 160 164 171 172 170 166 161 166 174 179 188 195 193 193 194 194 197 201 202 200 204 208 208 208 210 212 214 216 218 222 226 228 230 233 236 238
314 324 330 334 342 348 350 353 353 354 356 359 360 1 3 6 8 10 14 23 37 43 46 51 55 67 88 103 111 115 117 121 124 125 128 133 134 135 138 139 141 143 144 143 142 143 147 147 149 151 152 153 152 152 156 158 155 151 151 154 157 158 157 162 167 166 173 185 193 200 204 204 206 210 210 209 210 212 214 215 216 219 222 224 226 229 233 237
307 319 327 332 341 348 351 354 354 355 357 360 2 3 6 7 9 13 16 23 38 45 48 53 57 69 89 107 115 118 120 123 126 126 129 135 136 137 139 140 141 143 143 142 142 143 144 145 146 149 149 149 150 148 147 148 147 146 149 150 147 144 144 147 150 153 161 173 184 192 198 202 205 210 212 211 211 212 213 215 216 215 218 220 223 226 231 235
302 314 323 329 339 348 352 355 356 357 359 1 3 5 7 9 10 14 17 23 37 46 50 56 62 71 89 109 119 121 123 126 128 127 130 137 139 139 140 141 142 143 141 140 142 144 144 144 145 146 149 149 149 148 147 147 148 149 151 149 146 146 149 150 153 158 165 169 173 178 182 189 197 204 209 210 209 212 213 215 215 216 218 220 222 225 228 233
296 309 318 324 337 348 353 356 357 358 0 3 6 7 9 11 12 15 18 23 35 47 53 59 67 75 89 107 120 125 127 129 130 129 133 139 141 140 141 142 144 143 140 139 143 146 146 146 145 147 149 150 149 150 149 147 150 153 153 151 152 154 154 152 155 161 166 167 168 171 175 182 190 196 202 204 204 208 211 213 214 215 217 219 221 223 227 231
291 303 312 318 332 347 354 357 359 0 2 4 7 9 11 13 14 16 19 24 34 48 55 61 70 80 90 104 119 129 132 133 133 132 137 142 142 140 141 144 145 143 141 141 143 145 148 148 147 148 149 149 150 153 151 149 153 155 157 159 160 160 158 156 157 160 163 166 169 172 177 184 188 191 195 197 198 202 207 210 211 212 213 213 215 218 222 226
285 296 305 310 325 345 355 358 360 2 3 6 9 11 14 16 17 18 21 25 34 48 57 62 71 80 91 104 118 130 136 137 136 136 140 143 143 141 142 146 147 144 144 141 133 130 137 144 147 148 148 149 152 154 151 151 154 157 161 166 165 162 162 160 158 160 164 169 172 174 178 183 188 191 194 194 195 199 203 206 207 208 207 204 204 208 213 219
277 289 296 300 315 341 355 359 1 3 5 7 10 13 16 19 20 20 22 26 34 47 58 64 72 80 89 102 116 129 137 139 138 139 142 144 144 142 144 148 147 146 148 142 129 122 126 136 144 146 148 151 153 155 152 152 156 160 164 167 165 162 162 161 161 163 166 170 174 176 180 185 187 191 194 195 196 199 202 204 202 202 201 197 197 200 204 211
266 278 287 291 302 333 355 359 3 5 6 8 11 15 18 21 23 23 24 28 34 46 59 66 73 82 90 99 112 126 136 139 139 140 143 143 143 142 145 148 147 148 150 147 140 136 132 135 142 144 145 148 151 153 153 153 158 161 164 166 165 163 163 165 166 167 168 172 176 178 185 190 187 187 193 196 198 200 203 203 199 198 199 195 193 193 197 208
253 265 277 282 288 317 352 359 3 6 7 10 13 17 20 24 27 27 26 29 35 44 58 67 75 84 92 100 110 123 133 137 139 141 142 142 142 142 145 148 147 148 149 145 146 150 144 142 147 148 147 149 152 152 153 157 161 163 164 167 168 165 164 169 172 174 174 176 179 183 189 192 190 189 194 197 198 200 203 204 200 199 199 197 196 198 202 213
242 254 269 274 276 292 342 356 5 9 9 11 14 18 22 26 29 30 30 32 37 45 57 68 76 85 92 100 110 120 129 135 138 141 141 141 141 142 144 146 145 148 149 144 143 148 149 149 151 150 150 152 154 154 156 160 163 165 166 168 167 163 163 167 172 177 180 181 183 187 192 195 194 194 196 199 201 200 202 204 203 202 203 204 208 213 217 226
234 245 261 267 266 269 312 354 6 12 12 13 16 20 24 28 32 34 34 36 40 47 57 68 77 86 93 100 109 118 126 132 136 139 139 140 141 142 143 145 145 147 150 149 146 148 151 153 152 152 154 156 156 157 159 162 165 165 165 164 161 160 161 165 172 179 184 186 188 190 194 197 198 198 199 200 202 202 203 204 204 205 207 210 216 221 224 231
229 238 251 258 255 254 261 345 8 15 15 15 18 22 26 30 34 37 38 40 44 50 58 69 78 87 95 101 109 116 123 129 133 136 138 138 140 142 144 145 145 146 149 150 151 153 155 154 153 155 157 157 157 158 159 162 165 165 164 162 162 164 164 167 177 183 185 189 191 192 195 198 200 202 203 203 204 204 204 205 206 208 210 213 217 222 226 229
226 233 243 249 247 244 234 222 7 16 19 20 21 24 27 32 36 40 42 44 48 55 62 72 81 89 96 103 110 115 121 126 130 133 136 137 140 142 143 145 146 148 150 151 153 156 154 151 151 153 155 157 159 160 160 163 165 166 167 166 167 169 169 172 180 183 185 190 192 192 195 198 201 204 205 206 207 208 208 208 209 211 213 216 218 220 221 220
222 228 236 242 241 237 226 208 238 15 22 25 26 26 29 34 38 42 46 48 51 59 67 75 84 91 98 105 110 115 119 124 128 131 135 137 139 141 144 146 148 150 152 153 154 154 150 148 149 150 153 158 162 162 162 164 166 166 166 169 171 169 171 178 181 181 186 189 188 191 195 196 198 201 204 205 207 207 208 207 208 210 211 213 214 214 213 212
218 223 228 235 237 232 222 207 197 29 27 30 32 31 31 35 40 44 49 52 55 61 71 79 87 94 100 105 111 115 119 123 127 131 134 137 139 142 145 147 149 152 153 152 152 151 150 150 151 153 157 161 163 164 165 165 166 167 170 173 174 174 179 185 183 182 189 190 189 193 195 193 194 196 197 198 196 196 197 198 201 204 205 207 208 209 210 213
215 218 222 230 233 229 222 210 200 202 55 37 40 40 36 36 41 46 51 56 59 62 71 82 90 96 101 105 110 115 119 124 128 131 134 137 140 143 146 148 150 150 150 150 151 152 153 153 153 156 160 161 162 166 167 166 167 172 175 176 178 182 187 190 188 188 195 197 195 196 200 199 195 191 187 186 187 190 192 195 200 202 203 206 209 213 218 224
215 215 218 225 230 229 225 215 205 201 194 87 57 53 46 41 43 47 53 59 64 66 71 81 90 97 102 106 109 113 118 123 127 131 134 138 141 143 145 147 148 148 149 151 154 156 157 157 158 160 161 163 166 168 170 172 174 176 178 181 185 190 193 196 195 195 202 206 199 200 210 204 189 186 191 192 194 198 201 204 208 210 211 215 221 226 231 234
215 215 216 221 227 229 225 217 209 202 193 174 106 74 61 51 47 49 54 60 67 72 75 80 89 97 102 106 110 115 119 124 129 132 135 138 142 144 146 148 150 151 153 155 157 160 160 160 162 163 164 168 173 173 174 179 180 180 184 188 191 194 198 201 201 201 207 210 202 206 218 209 191 196 207 208 209 213 217 220 221 221 222 225 230 233 235 236
216 215 213 217 224 228 224 218 212 205 197 189 166 115 87 69 57 53 55 60 67 75 80 84 90 97 103 106 110 116 122 128 131 135 138 142 144 147 150 152 154 155 157 158 160 162 162 162 164 166 168 172 177 180 182 183 184 188 194 194 194 197 200 202 203 205 209 210 207 215 222 216 207 211 216 218 222 224 224 224 223 222 222 224 229 233 236 238
Height
5784 5782 5780 5778 5776 5774 5772 5770 5767 5765 5762 5760 5758 5755 5752 5749 5746 5743 5739 5736 5732 5728 5724 5720 5716 5711 5707 5701 5696 5692 5688 5684 5681 5677 5675 5675 5674 5675 5678 5680 5683 5686 5691 5695 5700 5706 5712 5717 5722 5725 5729 5734 5739 5743 5747 5751 5754 5757 5760 5763 5767 5771 5776 5781 5786 5791 5795 5798 5801 5805 5807 5809 5810 5812 5815 5818 5820 5822 5824 5827 5829 5831 5832 5834 5835 5837 5839 5840
5782 5780 5779 5776 5774 5772 5770 5767 5765 5762 5760 5757 5754 5752 5749 5745 5742 5738 5734 5730 5726 5722 5718 5713 5709 5704 5698 5692 5687 5682 5676 5672 5669 5666 5664 5664 5665 5666 5668 5671 5675 5678 5683 5688 5693 5699 5706 5711 5716 5721 5725 5730 5735 5739 5743 5747 5751 5754 5758 5762 5766 5770 5774 5778 5783 5788 5792 5796 5799 5803 5806 5807 5808 5810 5813 5816 5819 5821 5823 5825 5827 5829 5831 5833 5835 5836 5837 5838
5781 5779 5777 5774 5772 5770 5767 5765 5762 5760 5757 5754 5751 5748 5745 5741 5737 5733 5729 5724 5719 5715 5710 5705 5700 5695 5689 5683 5677 5672 5666 5661 5658 5655 5655 5655 5656 5657 5659 5663 5666 5671 5676 5681 5686 5693 5699 5705 5710 5715 5721 5726 5730 5735 5739 5743 5748 5752 5756 5761 5764 5768 5772 5776 5780 5786 5789 5792 5795 5799 5803 5804 5805 5808 5810 5813 5817 5819 5821 5824 5826 5827 5830 5832 5833 5834 5836 5837
5779 5777 5775 5772 5770 5768 5765 5762 5760 5757 5754 5751 5748 5744 5741 5737 5733 5728 5723 5718 5713 5708 5703 5697 5691 5685 5679 5673 5667 5662 5656 5652 5649 5647 5646 5647 5648 5649 5652 5655 5659 5664 5669 5674 5680 5687 5693 5699 5704 5709 5715 5720 5725 5731 5735 5740 5745 5749 5753 5759 5762 5766 5770 5774 5779 5784 5787 5789 5793 5796 5799 5801 5803 5807 5808 5811 5814 5817 5820 5822 5823 5825 5827 5829 5830 5832 5834 5835
5777 5775 5772 5770 5768 5765 5763 5760 5757 5754 5751 5748 5744 5741 5737 5732 5728 5723 5717 5712 5707 5701 5695 5689 5682 5676 5669 5663 5658 5652 5647 5643 5641 5640 5639 5639 5641 5642 5645 5648 5652 5657 5662 5668 5674 5681 5688 5694 5699 5704 5709 5715 5720 5726 5731 5737 5743 5746 5751 5756 5760 5763 5768 5771 5776 5780 5784 5787 5792 5794 5797 5800 5802 5805 5807 5809 5813 5815 5817 5819 5821 5823 5825 5826 5828 5830 5832 5833
5775 5773 5770 5768 5765 5763 5760 5758 5755 5751 5748 5744 5741 5737 5732 5728 5723 5717 5712 5706 5700 5694 5687 5680 5673 5666 5660 5654 5648 5643 5639 5635 5634 5634 5632 5633 5634 5636 5638 5642 5646 5651 5656 5662 5668 5676 5683 5688 5694 5699 5705 5710 5717 5723 5729 5734 5739 5744 5749 5753 5757 5761 5765 5769 5772 5776 5780 5784 5789 5792 5795 5798 5801 5803 5805 5807 5810 5813 5815 5817 5819 5821 5822 5824 5826 5828 5830 5832
5773 5771 5768 5766 5763 5761 5758 5755 5752 5749 5745 5741 5737 5733 5728 5723 5717 5712 5706 5700 5693 5686 5679 5671 5664 5658 5651 5645 5640 5635 5631 5629 5628 5628 5627 5628 5629 5630 5633 5636 5640 5645 5651 5657 5663 5671 5678 5684 5690 5695 5701 5706 5713 5720 5726 5731 5736 5741 5745 5749 5755 5759 5763 5767 5770 5774 5777 5781 5786 5790 5792 5795 5798 5801 5803 5805 5808 5810 5813 5816 5817 5819 5820 5822 5824 5825 5828 5830
5771 5769 5766 5764 5761 5759 5756 5753 5749 5746 5742 5738 5733 5729 5724 5718 5712 5706 5700 5693 5686 5678 5670 5663 5656 5649 5643 5637 5632 5628 5625 5623 5622 5622 5623 5624 5625 5626 5628 5631 5635 5640 5646 5652 5659 5666 5674 5680 5685 5691 5697 5703 5710 5716 5722 5728 5732 5738 5742 5747 5753 5757 5761 5766 5769 5772 5775 5778 5783 5787 5789 5792 5795 5798 5800 5803 5806 5809 5811 5814 5816 5817 5819 5820 5822 5824 5826 5828
5769 5767 5764 5762 5759 5756 5754 5750 5747 5743 5739 5735 5730 5725 5720 5713 5707 5701 5694 5687 5679 5671 5663 5655 5648 5641 5635 5630 5625 5622 5620 5618 5617 5618 5619 5620 5621 5622 5624 5627 5631 5636 5642 5648 5655 5662 5670 5677 5682 5688 5695 5700 5706 5713 5720 5726 5730 5736 5740 5745 5751 5754 5758 5763 5766 5770 5772 5775 5780 5785 5788 5789 5792 5795 5797 5800 5803 5806 5809 5812 5814 5815 5817 5819 5820 5823 5825 5827
5767 5765 5762 5760 5757 5754 5751 5748 5744 5741 5736 5731 5727 5721 5715 5709 5703 5696 5688 5680 5672 5663 5655 5648 5640 5634 5628 5623 5619 5617 5615 5613 5613 5613 5614 5616 5617 5618 5621 5624 5628 5633 5639 5645 5652 5659 5666 5673 5678 5686 5692 5697 5704 5711 5717 5723 5729 5734 5738 5743 5749 5752 5756 5760 5763 5767 5770 5773 5777 5782 5785 5786 5789 5792 5794 5797 5800 5803 5806 5809 5812 5813 5815 5817 5819 5821 5823 5825
5765 5762 5760 5757 5755 5752 5749 5746 5742 5738 5733 5728 5723 5718 5711 5705 5698 5690 5682 5674 5665 5656 5648 5641 5634 5627 5621 5616 5613 5611 5609 5608 5608 5608 5609 5611 5613 5615 5617 5621 5625 5630 5635 5642 5649 5656 5663 5670 5676 5683 5689 5694 5701 5709 5715 5721 5727 5732 5737 5742 5746 5750 5754 5758 5762 5765 5768 5771 5774 5778 5781 5784 5787 5789 5792 5794 5797 5800 5804 5807 5809 5811 5813 5815 5817 5819 5821 5823
5763 5761 5758 5755 5753 5750 5747 5744 5740 5735 5730 5725 5720 5714 5707 5700 5693 5685 5677 5668 5659 5650 5642 5635 5627 5621 5615 5611 5608 5605 5604 5603 5603 5603 5605 5606 5609 5611 5614 5618 5622 5627 5633 5639 5646 5653 5660 5667 5674 5680 5687 5693 5699 5706 5712 5719 5725 5729 5735 5741 5745 5749 5752 5756 5760 5763 5766 5768 5770 5775 5779 5782 5784 5787 5789 5791 5794 5798 5802 5805 5807 5809 5811 5813 5815 5817 5819 5822
5761 5759 5756 5754 5751 5748 5745 5741 5737 5732 5727 5722 5716 5710 5703 5696 5688 5680 5671 5662 5653 5644 5636 5629 5622 5615 5610 5606 5602 5600 5598 5597 5597 5598 5600 5602 5605 5608 5611 5615 5619 5625 5631 5637 5644 5651 5658 5665 5671 5678 5685 5691 5698 5705 5712 5717 5723 5727 5732 5738 5743 5748 5751 5754 5759 5762 5764 5766 5769 5774 5777 5780 5782 5785 5787 5789 5793 5797 5800 5804 5806 5807 5809 5811 5813 5815 5818 5820
5760 5757 5755 5752 5749 5747 5743 5739 5735 5730 5725 5719 5713 5707 5700 5692 5684 5675 5666 5657 5648 5639 5632 5624 5617 5611 5605 5601 5598 5595 5593 5592 5592 5594 5596 5598 5601 5605 5608 5613 5617 5623 5629 5635 5642 5649 5656 5662 5669 5676 5684 5690 5696 5704 5710 5714 5721 5726 5730 5735 5741 5745 5748 5752 5757 5760 5763 5765 5768 5772 5775 5778 5780 5783 5785 5788 5791 5795 5799 5802 5804 5806 5808 5810 5811 5813 5816 5818
5758 5756 5753 5751 5748 5745 5742 5737 5733 5728 5722 5717 5710 5704 5696 5688 5680 5671 5661 5652 5643 5635 5628 5620 5613 5607 5601 5597 5594 5591 5590 5589 5589 5590 5592 5595 5598 5602 5606 5611 5616 5622 5628 5634 5641 5648 5654 5661 5667 5674 5681 5688 5694 5701 5706 5711 5718 5724 5728 5731 5737 5742 5746 5751 5755 5758 5761 5764 5766 5770 5773 5776 5778 5781 5783 5786 5789 5793 5796 5800 5802 5804 5806 5808 5809 5811 5814 5817
5757 5755 5752 5750 5747 5744 5740 5736 5731 5726 5720 5714 5708 5701 5693 5685 5676 5667 5657 5648 5639 5631 5624 5617 5610 5604 5600 5596 5592 5590 5588 5587 5588 5589 5591 5593 5597 5601 5605 5610 5615 5620 5626 5632 5639 5646 5653 5659 5666 5673 5680 5687 5693 5698 5704 5709 5714 5720 5725 5730 5736 5740 5744 5749 5754 5757 5759 5762 5765 5768 5771 5774 5776 5778 5781 5784 5787 5791 5795 5798 5800 5802 5805 5807 5808 5810 5812 5815
5756 5753 5751 5748 5746 5742 5738 5734 5729 5724 5718 5712 5706 5698 5691 5682 5673 5664 5654 5645 5637 5628 5621 5614 5608 5603 5599 5596 5592 5590 5589 5588 5588 5588 5590 5593 5597 5600 5605 5609 5614 5620 5625 5631 5638 5645 5652 5659 5665 5672 5679 5686 5693 5697 5701 5707 5712 5718 5723 5728 5735 5739 5744 5749 5753 5755 5757 5760 5763 5766 5769 5772 5774 5777 5780 5783 5786 5790 5793 5796 5798 5800 5802 5805 5807 5809 5811 5814
5754 5752 5750 5747 5744 5741 5737 5732 5728 5722 5717 5710 5704 5696 5688 5679 5670 5661 5652 5643 5635 5627 5620 5614 5608 5603 5600 5596 5594 5591 5590 5589 5589 5589 5591 5593 5597 5601 5605 5609 5615 5620 5625 5631 5638 5645 5653 5659 5666 5672 5679 5685 5691 5696 5702 5709 5715 5719 5724 5728 5733 5738 5742 5748 5752 5754 5755 5758 5761 5764 5767 5770 5772 5776 5779 5781 5784 5788 5791 5793 5796 5798 5800 5803 5805 5808 5810 5813
5753 5751 5748 5746 5743 5740 5736 5731 5726 5721 5715 5709 5702 5694 5686 5677 5668 5659 5650 5642 5635 5628 5621 5615 5609 5605 5601 5598 5595 5593 5592 5591 5590 5591 5592 5595 5598 5602 5606 5610 5615 5620 5626 5632 5639 5646 5654 5660 5665 5671 5678 5685 5691 5697 5704 5711 5716 5720 5724 5729 5733 5738 5742 5746 5750 5752 5754 5757 5760 5763 5766 5768 5771 5775 5777 5780 5783 5786 5788 5791 5794 5797 5799 5801 5803 5806 5809 5811
5752 5750 5747 5745 5742 5738 5734 5730 5725 5720 5714 5707 5700 5692 5684 5675 5666 5657 5649 5641 5635 5628 5621 5615 5610 5605 5602 5599 5596 5595 5593 5593 5592 5593 5594 5597 5600 5603 5608 5612 5617 5622 5628 5634 5641 5649 5655 5661 5666 5672 5679 5686 5692 5698 5704 5710 5714 5718 5723 5727 5732 5737 5741 5744 5747 5750 5753 5756 5759 5762 5765 5767 5770 5773 5776 5779 5782 5784 5786 5789 5792 5795 5797 5799 5802 5805 5807 5810
5751 5749 5746 5744 5741 5737 5733 5729 5724 5719 5713 5706 5699 5691 5683 5674 5665 5657 5649 5641 5635 5629 5623 5617 5611 5607 5603 5600 5598 5596 5595 5594 5594 5595 5597 5599 5602 5606 5610 5615 5619 5625 5630 5637 5644 5650 5656 5662 5668 5674 5680 5686 5693 5698 5704 5709 5713 5717 5721 5726 5730 5735 5739 5742 5745 5748 5752 5755 5758 5761 5764 5766 5769 5772 5775 5778 5781 5783 5785 5788 5791 5794 5796 5799 5801 5803 5806 5809
5750 5747 5745 5743 5740 5737 5733 5728 5724 5718 5712 5705 5698 5690 5682 5673 5665 5656 5649 5642 5636 5631 5625 5619 5614 5609 5606 5602 5599 5597 5596 5596 5596 5598 5600 5603 5606 5610 5614 5618 5623 5628 5634 5640 5646 5652 5658 5664 5670 5675 5680 5687 5694 5699 5704 5709 5713 5717 5721 5725 5730 5734 5738 5741 5745 5748 5751 5754 5756 5760 5763 5765 5768 5771 5774 5777 5780 5782 5784 5786 5789 5792 5795 5797 5800 5802 5805 5808
5749 5746 5744 5742 5739 5736 5732 5728 5723 5718 5712 5705 5698 5690 5681 5673 5664 5656 5649 5643 5638 5633 5628 5622 5617 5613 5609 5605 5603 5600 5599 5599 5600 5601 5603 5606 5610 5614 5618 5622 5627 5632 5638 5643 5649 5655 5661 5667 5671 5676 5681 5686 5692 5698 5703 5708 5713 5717 5722 5726 5731 5734 5738 5741 5744 5747 5749 5752 5755 5758 5761 5764 5767 5770 5773 5776 5779 5781 5783 5785 5788 5791 5793 5795 5797 5801 5804 5807
5748 5746 5743 5741 5738 5735 5731 5727 5723 5717 5711 5705 5697 5689 5681 5673 5664 5657 5650 5645 5640 5636 5631 5626 5621 5617 5614 5610 5608 5605 5604 5604 5604 5606 5608 5611 5615 5618 5622 5626 5631 5636 5641 5646 5653 5659 5665 5670 5674 5678 5682 5687 5692 5697 5703 5707 5712 5717 5722 5727 5731 5735 5738 5740 5743 5745 5747 5750 5753 5757 5760 5763 5766 5769 5772 5775 5778 5780 5782 5784 5787 5789 5791 5793 5796 5799 5802 5805
5747 5745 5742 5740 5738 5734 5731 5727 5722 5717 5711 5704 5697 5689 5681 5673 5665 5658 5652 5647 5642 5638 5634 5630 5626 5622 5619 5616 5614 5611 5610 5610 5611 5612 5614 5617 5620 5623 5627 5631 5635 5639 5644 5650 5656 5662 5667 5672 5677 5681 5685 5690 5695 5700 5704 5707 5712 5717 5722 5726 5730 5734 5736 5738 5741 5743 5746 5749 5752 5755 5759 5762 5765 5769 5771 5774 5776 5779 5781 5783 5786 5788 5790 5793 5795 5798 5801 5803
5746 5744 5742 5739 5737 5734 5731 5727 5722 5717 5711 5704 5697 5689 5682 5673 5666 5660 5654 5649 5644 5641 5638 5634 5630 5627 5624 5621 5619 5617 5616 5617 5617 5618 5620 5622 5625 5628 5632 5636 5639 5643 5648 5653 5658 5663 5668 5673 5679 5684 5689 5694 5698 5701 5704 5707 5712 5717 5722 5725 5729 5733 5735 5738 5740 5743 5745 5748 5751 5755 5758 5761 5764 5768 5770 5773 5775 5778 5781 5783 5785 5787 5790 5793 5795 5797 5799 5802
5745 5743 5741 5739 5736 5733 5730 5726 5722 5717 5711 5705 5698 5690 5682 5674 5667 5661 5656 5652 5648 5644 5640 5637 5634 5631 5628 5626 5624 5623 5622 5622 5623 5624 5625 5627 5629 5632 5635 5639 5643 5647 5651 5656 5660 5665 5670 5675 5681 5686 5691 5695 5698 5700 5703 5707 5711 5717 5721 5726 5730 5732 5735 5737 5740 5743 5745 5748 5751 5754 5758 5761 5764 5767 5770 5772 5775 5777 5780 5783 5785 5787 5790 5792 5794 5796 5798 5800
5744 5743 5740 5738 5736 5733 5730 5726 5722 5717 5712 5705 5698 5691 5683 5675 5669 5663 5658 5655 5650 5646 5642 5639 5637 5634 5632 5630 5628 5628 5628 5628 5628 5629 5630 5632 5634 5636 5639 5643 5647 5651 5655 5659 5664 5669 5673 5677 5683 5687 5691 5694 5696 5699 5703 5707 5711 5716 5721 5726 5729 5732 5734 5737 5740 5743 5746 5749 5751 5754 5757 5760 5763 5766 5769 5771 5774 5777 5779 5782 5784 5786 5788 5790 5792 5794 5796 5799
5744 5742 5740 5738 5736 5733 5730 5727 5723 5718 5712 5706 5699 5692 5684 5677 5670 5664 5660 5657 5653 5648 5645 5642 5640 5638 5636 5634 5633 5633 5633 5633 5634 5634 5635 5637 5639 5641 5644 5647 5651 5655 5659 5663 5667 5672 5676 5680 5684 5687 5690 5693 5696 5700 5704 5707 5711 5716 5721 5725 5728 5732 5735 5737 5740 5743 5746 5749 5752 5754 5757 5760 5763 5765 5768 5771 5773 5776 5778 5780 5782 5785 5787 5789 5791 5793 5795 5798
5743 5741 5739 5738 5736 5733 5730 5727 5723 5718 5713 5707 5700 5693 5686 5678 5672 5667 5663 5660 5655 5651 5648 5646 5644 5642 5640 5638 5637 5638 5638 5638 5639 5639 5640 5642 5644 5645 5648 5651 5654 5658 5663 5666 5670 5675 5679 5683 5686 5688 5691 5695 5698 5701 5705 5709 5712 5717 5721 5725 5728 5732 5735 5737 5740 5743 5746 5749 5752 5755 5757 5760 5762 5765 5768 5770 5772 5774 5777 5779 5782 5784 5787 5789 5790 5792 5795 5797
5742 5741 5739 5737 5735 5733 5730 5727 5724 5719 5714 5708 5702 5695 5687 5680 5674 5669 5665 5662 5658 5655 5652 5650 5648 5646 5644 5642 5642 5642 5642 5643 5644 5644 5645 5646 5648 5650 5652 5655 5658 5661 5666 5669 5673 5677 5681 5685 5688 5691 5694 5697 5700 5703 5707 5711 5714 5718 5722 5726 5729 5732 5735 5737 5740 5743 5746 5749 5752 5754 5757 5760 5763 5765 5767 5770 5772 5774 5776 5779 5782 5784 5786 5787 5789 5791 5793 5795
5741 5740 5739 5737 5735 5733 5731 5728 5724 5720 5715 5710 5703 5696 5689 5682 5676 5671 5667 5663 5660 5658 5655 5653 5651 5649 5648 5646 5646 5646 5647 5647 5648 5649 5650 5651 5653 5655 5657 5660 5663 5666 5669 5673 5676 5680 5684 5687 5690 5693 5696 5699 5702 5706 5710 5713 5717 5720 5723 5727 5730 5732 5735 5737 5740 5743 5745 5748 5751 5754 5757 5760 5762 5764 5767 5769 5771 5774 5776 5778 5781 5783 5784 5786 5788 5790 5792 5794
5741 5740 5738 5737 5735 5733 5731 5728 5725 5721 5717 5711 5705 5698 5691 5684 5678 5673 5669 5666 5663 5661 5658 5656 5654 5653 5652 5650 5650 5651 5651 5652 5652 5653 5654 5656 5657 5659 5662 5664 5668 5671 5674 5676 5679 5683 5686 5689 5693 5696 5699 5702 5705 5708 5712 5715 5718 5721 5724 5727 5730 5733 5736 5738 5740 5743 5745 5748 5750 5753 5756 5759 5762 5764 5766 5769 5771 5773 5775 5777 5779 5781 5783 5785 5787 5789 5790 5792
5740 5739 5738 5736 5735 5733 5731 5728 5725 5722 5718 5712 5706 5700 5693 5686 5680 5675 5671 5668 5666 5663 5661 5659 5658 5656 5655 5654 5654 5655 5655 5656 5656 5657 5658 5660 5661 5663 5666 5668 5671 5674 5678 5680 5683 5686 5689 5692 5695 5698 5701 5704 5707 5710 5713 5717 5719 5722 5725 5728 5730 5733 5736 5739 5741 5743 5745 5748 5750 5752 5755 5758 5761 5763 5766 5768 5770 5772 5774 5776 5778 5780 5782 5784 5786 5787 5789 5790
5739 5738 5737 5736 5735 5733 5731 5729 5726 5723 5719 5714 5708 5702 5695 5688 5683 5678 5674 5671 5668 5666 5664 5662 5661 5659 5658 5658 5658 5658 5659 5660 5660 5661 5662 5664 5665 5667 5669 5672 5674 5677 5681 5683 5686 5689 5692 5694 5697 5700 5703 5706 5709 5712 5715 5718 5721 5723 5726 5728 5731 5734 5736 5738 5741 5743 5745 5747 5750 5752 5755 5758 5760 5763 5765 5767 5770 5771 5773 5775 5777 5779 5781 5782 5784 5785 5787 5789
5739 5738 5737 5736 5735 5733 5731 5729 5727 5724 5720 5715 5710 5704 5697 5691 5685 5681 5677 5674 5671 5668 5666 5665 5664 5663 5661 5661 5661 5661 5662 5663 5664 5665 5666 5668 5669 5671 5673 5675 5678 5681 5684 5686 5689 5692 5694 5696 5699 5702 5705 5708 5711 5714 5716 5719 5722 5725 5727 5730 5732 5735 5737 5739 5741 5743 5744 5747 5749 5751 5754 5756 5759 5761 5764 5766 5768 5770 5772 5774 5776 5777 5779 5781 5783 5784 5786 5787
5738 5737 5737 5736 5735 5733 5731 5729 5727 5724 5721 5717 5712 5706 5700 5694 5688 5683 5679 5676 5673 5671 5669 5668 5666 5665 5665 5664 5664 5664 5665 5666 5667 5668 5670 5671 5673 5675 5677 5679 5682 5684 5687 5689 5692 5695 5696 5699 5701 5704 5707 5709 5712 5715 5718 5721 5723 5726 5729 5732 5734 5736 5738 5740 5742 5743 5745 5747 5749 5751 5753 5755 5758 5760 5762 5765 5767 5769 5771 5772 5774 5776 5778 5780 5782 5783 5785 5786
5737 5737 5736 5735 5734 5733 5732 5730 5728 5725 5722 5718 5713 5708 5702 5696 5691 5686 5682 5679 5676 5673 5672 5670 5669 5668 5668 5667 5667 5668 5668 5669 5670 5671 5673 5675 5677 5678 5680 5683 5685 5687 5689 5692 5694 5696 5699 5701 5703 5706 5709 5711 5714 5717 5719 5722 5725 5728 5731 5733 5735 5737 5739 5741 5743 5745 5746 5748 5750 5752 5754 5756 5758 5760 5762 5764 5766 5768 5769 5771 5773 5775 5777 5779 5781 5782 5783 5785
5736 5736 5735 5735 5734 5733 5732 5730 5728 5726 5723 5720 5715 5711 5705 5699 5694 5689 5685 5682 5679 5676 5674 5673 5671 5670 5670 5670 5670 5671 5671 5672 5673 5674 5676 5678 5680 5682 5684 5687 5689 5691 5693 5695 5697 5698 5701 5703 5706 5709 5711 5714 5716 5719 5721 5723 5726 5729 5732 5734 5736 5738 5740 5742 5744 5745 5747 5749 5751 5752 5754 5756 5758 5760 5761 5763 5765 5767 5769 5770 5772 5774 5776 5778 5779 5781 5782 5783
5735 5735 5735 5734 5734 5733 5732 5730 5729 5727 5724 5721 5718 5713 5708 5702 5697 5692 5688 5685 5682 5679 5676 5675 5674 5673 5673 5673 5673 5673 5674 5675 5676 5678 5679 5681 5684 5685 5687 5690 5692 5694 5696 5698 5700 5701 5704 5707 5709 5711 5713 5716 5718 5721 5723 5725 5727 5730 5733 5735 5737 5739 5741 5743 5744 5746 5748 5749 5751 5753 5754 5756 5757 5759 5761 5763 5765 5766 5768 5770 5772 5773 5775 5777 5778 5779 5781 5782
5734 5734 5734 5734 5734 5733 5732 5731 5729 5728 5726 5723 5720 5715 5710 5705 5700 5696 5692 5688 5685 5682 5679 5678 5677 5676 5675 5675 5676 5676 5677 5679 5680 5681 5683 5685 5687 5689 5691 5693 5695 5698 5700 5702 5703 5705 5707 5709 5712 5714 5716 5718 5720 5722 5724 5726 5729 5731 5734 5736 5738 5739 5741 5743 5745 5746 5748 5750 5751 5753 5754 5756 5758 5759 5761 5762 5764 5766 5767 5769 5771 5773 5774 5776 5777 5778 5780 5781
5733 5733 5733 5733 5733 5733 5732 5731 5730 5728 5727 5724 5721 5718 5713 5708 5703 5699 5695 5692 5688 5685 5683 5681 5680 5679 5678 5678 5679 5680 5681 5682 5683 5685 5687 5688 5691 5692 5695 5697 5699 5701 5703 5705 5706 5708 5710 5712 5714 5716 5718 5720 5722 5724 5726 5728 5730 5732 5735 5737 5739 5740 5742 5744 5745 5747 5748 5750 5751 5753 5754 5756 5757 5759 5760 5762 5763 5765 5766 5768 5770 5771 5773 5775 5776 5777 5778 5780
5732 5732 5732 5733 5733 5733 5732 5731 5730 5729 5727 5726 5723 5720 5716 5711 5706 5702 5699 5695 5692 5689 5686 5684 5683 5682 5682 5682 5682 5683 5684 5686 5687 5689 5690 5692 5694 5696 5698 5700 5702 5704 5706 5708 5709 5711 5713 5714 5716 5718 5720 5722 5724 5726 5728 5730 5732 5734 5736 5738 5739 5741 5742 5744 5746 5747 5749 5750 5751 5753 5754 5756 5757 5758 5760 5761 5762 5764 5765 5767 5768 5770 5772 5773 5774 5775 5777 5778
5730 5731 5731 5732 5733 5733 5732 5731 5730 5729 5728 5727 5725 5722 5718 5714 5710 5705 5702 5699 5696 5693 5691 5688 5687 5686 5685 5685 5686 5687 5688 5689 5691 5692 5694 5696 5697 5699 5701 5703 5705 5707 5709 5711 5712 5714 5715 5717 5719 5720 5722 5724 5726 5727 5729 5731 5733 5735 5736 5738 5740 5741 5742 5744 5746 5747 5749 5750 5751 5752 5754 5755 5756 5758 5759 5760 5761 5763 5764 5765 5767 5768 5770 5771 5773 5774 5776 5777
5729 5729 5730 5731 5732 5732 5732 5731 5730 5730 5729 5727 5726 5724 5721 5717 5713 5709 5705 5703 5700 5697 5695 5693 5691 5690 5689 5689 5690 5691 5692 5693 5695 5696 5698 5699 5701 5703 5705 5707 5708 5710 5712 5714 5715 5716 5718 5719 5721 5723 5724 5726 5727 5729 5731 5732 5734 5735 5737 5738 5740 5741 5743 5744 5746 5748 5749 5750 5751 5752 5753 5755 5756 5757 5758 5759 5761 5762 5763 5764 5765 5767 5769 5770 5772 5773 5775 5776
5727 5728 5729 5730 5731 5731 5731 5731 5730 5730 5729 5728 5727 5725 5723 5720 5716 5712 5709 5706 5704 5701 5699 5697 5696 5694 5694 5694 5694 5695 5696 5698 5699 5700 5702 5703 5705 5706 5708 5710 5712 5713 5715 5716 5718 5719 5721 5722 5724 5725 5727 5728 5730 5731 5732 5734 5735 5737 5738 5739 5740 5742 5743 5745 5746 5748 5749 5750 5751 5752 5753 5754 5756 5757 5758 5759 5760 5761 5762 5764 5765 5767 5768 5770 5771 5772 5774 5775
5725 5726 5727 5729 5730 5731 5731 5730 5730 5730 5730 5729 5728 5726 5724 5722 5719 5715 5712 5709 5707 5705 5703 5701 5700 5699 5699 5698 5699 5700 5701 5702 5703 5704 5705 5707 5708 5710 5711 5713 5714 5716 5717 5719 5720 5722 5723 5724 5726 5727 5729 5730 5731 5733 5734 5735 5737 5738 5739 5741 5742 5743 5745 5746 5747 5748 5749 5750 5751 5752 5753 5754 5755 5757 5758 5759 5760 5761 5763 5764 5765 5766 5768 5769 5770 5771 5773 5774
5723 5724 5726 5727 5729 5730 5730 5730 5730 5730 5730 5729 5728 5727 5726 5724 5721 5718 5715 5713 5710 5709 5707 5705 5704 5704 5703 5703 5703 5704 5705 5706 5707 5708 5709 5710 5711 5713 5714 5716 5717 5718 5720 5721 5723 5724 5725 5726 5727 5729 5730 5731 5733 5734 5735 5737 5738 5739 5741 5742 5743 5744 5745 5746 5748 5749 5750 5751 5751 5752 5753 5754 5756 5757 5758 5759 5760 5762 5763 5764 5765 5766 5767 5768 5770 5771 5772 5773
5720 5722 5724 5725 5727 5729 5729 5729 5729 5729 5730 5729 5729 5728 5727 5726 5724 5721 5718 5716 5714 5712 5710 5709 5708 5707 5707 5707 5707 5708 5708 5709 5710 5711 5712 5713 5715 5716 5717 5718 5720 5721 5722 5723 5725 5726 5727 5728 5729 5730 5732 5733 5734 5735 5737 5738 5739 5740 5742 5743 5744 5745 5746 5747 5748 5749 5750 5751 5752 5753 5754 5755 5756 5758 5759 5760 5761 5762 5762 5763 5764 5765 5767 5768 5769 5770 5772 5773
5718 5720 5721 5724 5726 5727 5728 5728 5729 5729 5729 5729 5729 5728 5727 5727 5726 5724 5721 5719 5717 5715 5713 5712 5711 5710 5710 5711 5711 5711 5711 5712 5713 5714 5715 5716 5718 5719 5720 5721 5722 5723 5724 5725 5726 5727 5728 5730 5731 5732 5733 5734 5735 5737 5738 5739 5740 5741 5742 5743 5745 5746 5747 5748 5749 5750 5751 5751 5753 5754 5754 5755 5757 5758 5759 5760 5760 5761 5762 5763 5764 5765 5767 5768 5769 5770 5771 5772
5716 5717 5719 5722 5724 5726 5727 5727 5728 5728 5729 5729 5729 5728 5728 5728 5727 5726 5724 5722 5720 5718 5716 5715 5715 5714 5713 5713 5714 5714 5714 5715 5716 5716 5718 5719 5720 5721 5722 5723 5724 5725 5726 5727 5728 5729 5730 5731 5732 5733 5734 5735 5736 5737 5738 5740 5741 5742 5743 5744 5745 5746 5747 5748 5749 5750 5751 5752 5753 5754 5754 5755 5757 5758 5758 5759 5760 5761 5762 5763 5764 5765 5766 5767 5768 5769 5769 5770
5714 5715 5717 5719 5722 5724 5725 5726 5726 5727 5728 5728 5729 5729 5728 5728 5728 5727 5726 5724 5722 5720 5719 5718 5717 5717 5716 5716 5716 5717 5717 5717 5718 5719 5720 5721 5722 5723 5724 5725 5725 5726 5727 5728 5729 5730 5731 5732 5733 5734 5735 5736 5737 5738 5739 5740 5741 5742 5743 5744 5745 5746 5747 5748 5749 5750 5751 5752 5753 5753 5753 5755 5756 5757 5758 5759 5760 5760 5761 5761 5762 5763 5765 5765 5766 5767 5767 5768